TimeEDT,TemperatureF,Dew PointF,Humidity,Sea Level PressureIn,VisibilityMPH,Wind Direction,Wind SpeedMPH,Gust SpeedMPH,PrecipitationIn,Events,Conditions,WindDirDegrees,DateUTC
12:52 AM,53.1,44.1,71,29.70,10.0,Calm,Calm,-,N/A,,Overcast,0,2012-10-21 04:52:00
1:52 AM,51.1,44.1,77,29.72,10.0,Calm,Calm,-,N/A,,Overcast,0,2012-10-21 05:52:00
4:08 AM,39.2,37.4,93,29.72,10.0,Calm,Calm,-,N/A,,Clear,0,2012-10-21 08:08:00
4:27 AM,37.4,35.6,93,29.73,6.0,Calm,Calm,-,N/A,,Partly Cloudy,0,2012-10-21 08:27:00
4:52 AM,39.9,37.9,93,29.75,10.0,Calm,Calm,-,N/A,,Scattered Clouds,0,2012-10-21 08:52:00
5:36 AM,39.2,39.2,100,29.74,10.0,Calm,Calm,-,N/A,,Overcast,0,2012-10-21 09:36:00
6:52 AM,37.9,37.0,97,29.77,8.0,Calm,Calm,-,N/A,,Mostly Cloudy,0,2012-10-21 10:52:00
7:52 AM,39.9,37.9,93,29.78,9.0,Calm,Calm,-,N/A,,Mostly Cloudy,0,2012-10-21 11:52:00
9:52 AM,48.9,39.9,71,29.79,10.0,West,4.6,-,N/A,,Overcast,270,2012-10-21 13:52:00
11:52 AM,52.0,39.0,61,29.78,10.0,Variable,3.5,-,N/A,,Overcast,0,2012-10-21 15:52:00
12:52 PM,51.1,39.0,63,29.78,10.0,West,5.8,-,0.00,,Overcast,260,2012-10-21 16:52:00
1:52 PM,53.1,39.0,59,29.77,10.0,Variable,3.5,-,0.00,,Overcast,0,2012-10-21 17:52:00
2:52 PM,53.1,37.9,57,29.76,10.0,West,9.2,21.9,N/A,,Overcast,260,2012-10-21 18:52:00
3:52 PM,53.1,37.9,57,29.78,10.0,Variable,4.6,19.6,0.00,Rain,Light Rain,0,2012-10-21 19:52:00
4:52 PM,50.0,41.0,71,29.79,9.0,West,5.8,-,0.00,Rain,Light Rain,280,2012-10-21 20:52:00
6:52 PM,50.0,39.0,66,29.81,10.0,West,10.4,-,N/A,,Overcast,270,2012-10-21 22:52:00
7:20 PM,50.0,39.2,66,29.78,10.0,West,10.4,16.1,0.00,Rain,Light Rain,280,2012-10-21 23:20:00
7:52 PM,48.9,39.9,71,29.81,10.0,WNW,10.4,16.1,0.00,,Overcast,290,2012-10-21 23:52:00
8:52 PM,48.9,41.0,74,29.82,10.0,Variable,5.8,-,0.00,,Overcast,0,2012-10-22 00:52:00
9:52 PM,48.0,41.0,77,29.82,10.0,Variable,3.5,-,0.00,Rain,Light Rain,0,2012-10-22 01:52:00
10:52 PM,48.9,39.9,71,29.81,10.0,West,8.1,-,0.00,,Overcast,280,2012-10-22 02:52:00
11:52 PM,48.9,39.9,71,29.81,10.0,WNW,12.7,24.2,N/A,,Overcast,290,2012-10-22 03:52:00